Regional Weather Roundup
Issued by NWS

Home | Current Version | Previous Version | Graphics & Text | Print | Product List | Glossary On
Versions: 1 2 3 4 5 6 7 8 9 10 11 12 13 14 15 16 17 18 19 20 21 22 23 24 25 26 27
000
ASUS45 KSLC 190910
RWRUT

UTAH REGIONAL WEATHER ROUNDUP
NATIONAL WEATHER SERVICE SALT LAKE CITY UT
300 AM MDT SAT AUG 19 2017

UTZ001>011-023>025-191000-

NORTHERN UTAH

CITY           SKY/WX    TMP DP  RH WIND       PRES   REMARKS
BRIGHAM CITY   CLEAR     61  34  36 CALM      30.08S
HILL AFB       CLEAR     66  31  27 E16       30.11R
LOGAN          CLEAR     58  41  53 CALM      30.10S
OGDEN          CLEAR     66  33  29 S12       30.07S
SALT LAKE CITY CLEAR     70  36  28 N6        30.06S
TOOELE VALLEY  CLEAR     66  34  30 S9        30.07S
WENDOVER       NOT AVBL
HEBER CITY     CLEAR     48  39  71 CALM      30.20R
WEST JORDAN    CLEAR     66  41  40 SW7       30.09F

$$

UTZ011>015-024>027-191000-

CENTRAL/NORTHEAST UTAH

CITY           SKY/WX    TMP DP  RH WIND       PRES   REMARKS
PROVO AIRPORT  CLEAR     61  43  51 NE5       30.10S
MOAB/CANYONLAN PTCLDY    69  31  24 CALM      30.04S
DELTA          PTCLDY    64  36  34 E6        30.08F
PRICE          PTCLDY    61  36  39 CALM      30.17F
ROOSEVELT      CLEAR     57  43  58 CALM      30.15R
VERNAL         CLEAR     58  41  53 W5        30.13S

$$

UTZ013>016-019>022-027-191000-

SOUTHERN UTAH

CITY           SKY/WX    TMP DP  RH WIND       PRES   REMARKS
BRYCE CANYON   CLEAR     48  38  68 W9        30.34F
CEDAR CITY     CLEAR     69  38  32 SE8       30.17F
MILFORD        PTCLDY    65  39  38 S6        30.11S
ST GEORGE      SUNNY     79  42  26 E7        29.98S
HANKSVILLE     PTCLDY    66  32  28 CALM      30.07S
BLANDING       PTCLDY    62  34  35 N8        30.23F

$$

REGIONAL REPORTS     COLORADO/ARIZONA

CITY           SKY/WX    TMP DP  RH WIND       PRES   REMARKS
CRAIG, CO      CLOUDY    48  35  60 CALM      30.22S
GRAND JUNCTION CLEAR     66  33  29 E6        30.10R
RIFLE, CO      CLEAR     58  33  39 CALM      30.18S
MONTROSE, CO   CLEAR     61  39  44 SE8       30.19F
CORTEZ, CO     CLEAR     50  37  61 E5        30.20F
COLORADO CITY    N/A     57  46  67 SE6       30.16S
PAGE, AZ       CLEAR     78  32  18 SW5       30.04F
GRAND CANYON   CLEAR     47  34  60 CALM      30.29F
KINGMAN, AZ    CLEAR     72  35  25 S6        30.04F
FLAGSTAFF, AZ  CLEAR     51  37  58 CALM      30.31F

$$

REGIONAL REPORTS    NEVADA/IDAHO/WYOMING

CITY           SKY/WX    TMP DP  RH WIND       PRES   REMARKS
LAS VEGAS, NV  CLEAR     87  37  17 S7        29.90F
ELY, NY        PTCLDY    59  34  39 S10       30.22S
ELKO, NV       CLEAR     52  32  46 CALM      30.14S
POCATELLO, ID  CLEAR     55  30  38 NW3       30.07S
BURLEY, ID     CLEAR     57  38  48 SW7       30.03F
FORT BRIDGER,    N/A     61  28  28 SW10      30.30R
EVANSTON, WY   CLOUDY    54  31  41 SE8       30.28S
ROCK SPRINGS,  CLEAR     60  27  28 SW13      30.23F
KEMMERER, WY     N/A     50  32  50 CALM      30.28S

$$




USA.gov is the U.S. government's official web portal to all federal, state and local government web resources and services.